Date String (YYYY-MM-DD hh:mm:ss) UTC,Instrument flags,absolute air pressure of the measurement (hPa),sample flow rate (lpm),inlet stack bypass flow (lpm),air temperature of the measurement (°C),ambient temperature measured by the external sensor (°C),aerosol sample conditioner tube jacket temperature (°C),OPC LED temperature (°C),internal box temperature (°C),relative humidity of the measurement (%),span deviation,mass concentration of particles derived from Lorenz-Mie calculation of OPC scattering (μg/m³),mass concentration of particles derived from Lorenz-Mie calculation of OPC scattering (μg/m³),mass concentration of particles derived from Lorenz-Mie calculation of OPC scattering (μg/m³)
DateTimeUTC,F1_M11,P_M11,Q1_M11,Q2_M11,T1_M11,T2_M11,T3_M11,T4_M11,T5_M11,U1_M11,ZSPAN_M11,X2_M11,X0_M11,X1_M11
2024-04-18 11:00:00,SystemResetWarning,0833.2,5.01,000.00,022.6,021.9,000.0,031.3,024.6,019.1,0000.0,0002.56,0005.07,0002.26
2024-04-18 11:01:00,SystemResetWarning,0833.2,4.99,000.00,022.6,021.9,000.0,031.3,024.5,019.2,0000.0,0002.61,0005.15,0002.28
2024-04-18 11:02:00,SystemResetWarning,0833.2,5.00,000.00,022.6,021.9,000.0,031.3,024.5,019.2,0000.0,0002.64,0005.16,0002.29
2024-04-18 11:03:00,SystemResetWarning,0833.2,5.00,000.00,022.6,021.9,000.0,031.3,024.5,019.2,0000.0,0002.67,0005.18,0002.31
2024-04-18 11:04:00,SystemResetWarning,0833.2,5.00,000.00,022.6,021.9,000.0,031.3,024.5,019.2,0000.0,0002.68,0005.07,0002.33
2024-04-18 11:05:00,SystemResetWarning,0833.2,5.00,000.00,022.6,021.8,000.0,031.3,024.5,019.2,0000.0,0002.72,0004.23,0002.35
2024-04-18 11:06:00,SystemResetWarning,0833.2,5.00,000.00,022.6,021.8,000.0,031.3,024.5,019.2,0000.0,0002.75,0003.80,0002.39
2024-04-18 11:07:00,SystemResetWarning,0833.2,5.00,000.00,022.6,021.8,000.0,031.2,024.5,019.3,0000.0,0002.76,0003.52,0002.42
2024-04-18 11:08:00,SystemResetWarning,0833.3,5.00,000.00,022.6,021.8,000.0,031.2,024.5,019.2,0000.0,0002.76,0003.45,0002.44
2024-04-18 11:09:00,SystemResetWarning,0833.3,5.00,000.00,022.6,021.9,000.0,031.2,024.5,019.3,0000.0,0002.80,0003.48,0002.49
2024-04-18 11:10:00,SystemResetWarning,0833.2,5.01,000.00,022.6,021.9,000.0,031.2,024.5,019.4,0000.0,0002.85,0003.55,0002.52
2024-04-18 11:11:00,SystemResetWarning,0833.2,5.01,000.00,022.6,021.9,000.0,031.2,024.5,019.4,0000.0,0002.89,0003.56,0002.56
2024-04-18 11:12:00,SystemResetWarning,0833.2,5.01,000.00,022.6,021.9,000.0,031.2,024.5,019.3,0000.0,0002.90,0003.55,0002.60
2024-04-18 11:13:00,SystemResetWarning,0833.2,5.00,000.00,022.6,021.8,000.0,031.2,024.5,019.3,0000.0,0002.93,0003.55,0002.64
2024-04-18 11:14:00,SystemResetWarning,0833.2,4.99,000.00,022.6,021.8,000.0,031.2,024.5,019.3,0000.0,0002.96,0003.59,0002.66
2024-04-18 11:15:00,SystemResetWarning,0833.2,5.00,000.00,022.5,021.8,000.0,031.2,024.4,019.4,0000.0,0002.97,0003.53,0002.71
2024-04-18 11:16:00,SystemResetWarning,0833.2,5.00,000.00,022.5,021.8,000.0,031.2,024.4,019.5,0000.0,0002.98,0003.53,0002.75
2024-04-18 11:17:00,SystemResetWarning,0833.2,5.01,000.00,022.5,021.7,000.0,031.2,024.4,019.5,0000.0,0003.01,0003.57,0002.79
2024-04-18 11:18:00,SystemResetWarning,0833.2,5.01,000.00,022.5,021.7,000.0,031.2,024.4,019.5,0000.0,0003.08,0003.67,0002.84
2024-04-18 11:19:00,SystemResetWarning,0833.2,4.99,000.00,022.5,021.7,000.0,031.2,024.4,019.6,0000.0,0003.12,0003.74,0002.89
2024-04-18 11:20:00,SystemResetWarning,0833.2,5.00,000.00,022.5,021.7,000.0,031.2,024.4,019.7,0000.0,0003.13,0003.71,0002.92
2024-04-18 11:21:00,SystemResetWarning,0833.2,4.99,000.00,022.5,021.7,000.0,031.2,024.3,019.6,0000.0,0003.15,0003.73,0002.98
2024-04-18 11:22:00,SystemResetWarning,0833.2,5.00,000.00,022.4,021.6,000.0,031.1,024.3,019.6,0000.0,0003.18,0003.79,0003.05
2024-04-18 11:23:00,SystemResetWarning,0833.2,5.00,000.00,022.4,021.6,000.0,031.1,024.3,019.6,0000.0,0003.21,0003.83,0003.11
2024-04-18 11:24:00,SystemResetWarning,0833.2,5.01,000.00,022.4,021.6,000.0,031.1,024.3,019.6,0000.0,0003.25,0003.92,0003.15
2024-04-18 11:25:00,SystemResetWarning,0833.2,5.00,000.00,022.4,021.5,000.0,031.1,024.2,019.6,0000.0,0003.33,0004.21,0003.20
2024-04-18 11:26:00,SystemResetWarning,0833.2,4.99,000.00,022.3,021.5,000.0,031.1,024.2,019.6,0000.0,0003.38,0004.40,0003.24
2024-04-18 11:27:00,SystemResetWarning,0833.3,5.00,000.00,022.3,021.5,000.0,031.1,024.2,019.7,0000.0,0003.44,0004.58,0003.28
2024-04-18 11:28:00,SystemResetWarning,0833.2,4.99,000.00,022.3,021.4,000.0,031.0,024.2,019.8,0000.0,0003.47,0004.75,0003.31
2024-04-18 11:29:00,SystemResetWarning,0833.2,5.01,000.00,022.3,021.4,000.0,031.0,024.1,019.8,0000.0,0003.48,0004.76,0003.32
2024-04-18 11:30:00,SystemResetWarning,0833.2,5.01,000.00,022.3,021.4,000.0,031.0,024.1,019.9,0000.0,0003.51,0004.82,0003.34
2024-04-18 11:31:00,SystemResetWarning,0833.2,5.01,000.00,022.3,021.4,000.0,031.0,024.1,019.9,0000.0,0003.55,0004.91,0003.37
2024-04-18 11:32:00,SystemResetWarning,0833.2,5.01,000.00,022.2,021.4,000.0,031.0,024.1,019.9,0000.0,0003.57,0004.98,0003.38
2024-04-18 11:33:00,SystemResetWarning,0833.2,5.00,000.00,022.2,021.4,000.0,031.0,024.1,019.9,0000.0,0003.58,0004.93,0003.38
2024-04-18 11:34:00,SystemResetWarning,0833.2,4.99,000.00,022.2,021.4,000.0,031.0,024.1,019.9,0000.0,0003.56,0004.84,0003.37
2024-04-18 11:35:00,SystemResetWarning,0833.2,4.99,000.00,022.2,021.4,000.0,030.9,024.1,019.9,0000.0,0003.53,0004.75,0003.35
2024-04-18 11:36:00,SystemResetWarning,0833.2,4.99,000.00,022.2,021.3,000.0,030.9,024.1,019.9,0000.0,0003.48,0004.47,0003.33
2024-04-18 11:37:00,SystemResetWarning,0833.2,5.01,000.00,022.2,021.3,000.0,030.9,024.1,019.9,0000.0,0003.46,0004.33,0003.31
2024-04-18 11:38:00,SystemResetWarning,0833.2,5.01,000.00,022.2,021.3,000.0,030.9,024.0,019.9,0000.0,0003.41,0004.14,0003.29
2024-04-18 11:39:00,SystemResetWarning,0833.2,5.01,000.00,022.2,021.3,000.0,030.9,024.0,019.8,0000.0,0003.39,0003.94,0003.27
2024-04-18 11:40:00,SystemResetWarning,0833.2,5.00,000.00,022.1,021.3,000.0,030.9,024.0,019.8,0000.0,0003.37,0003.88,0003.25
2024-04-18 11:41:00,SystemResetWarning,0833.2,5.00,000.00,022.1,021.3,000.0,030.9,024.0,019.8,0000.0,0003.34,0003.85,0003.23
2024-04-18 11:42:00,SystemResetWarning,0833.2,5.00,000.00,022.1,021.3,000.0,030.9,024.0,019.8,0000.0,0003.32,0003.80,0003.21
2024-04-18 11:43:00,SystemResetWarning,0833.2,5.00,000.00,022.1,021.3,000.0,030.8,024.0,019.8,0000.0,0003.30,0003.76,0003.19
2024-04-18 11:44:00,SystemResetWarning,0833.3,5.00,000.00,022.1,021.3,000.0,030.8,024.0,019.9,0000.0,0003.28,0003.72,0003.17
2024-04-18 11:45:00,SystemResetWarning,0833.2,5.00,000.00,022.1,021.3,000.0,030.8,024.0,019.9,0000.0,0003.27,0003.69,0003.16
2024-04-18 11:46:00,SystemResetWarning,0833.3,5.00,000.00,022.1,021.3,000.0,030.8,024.0,019.9,0000.0,0003.27,0003.73,0003.15
2024-04-18 11:47:00,SystemResetWarning,0833.2,5.00,000.00,022.1,021.3,000.0,030.8,024.0,020.0,0000.0,0003.29,0003.80,0003.15
2024-04-18 11:48:00,SystemResetWarning,0833.2,5.00,000.00,022.1,021.3,000.0,030.8,024.0,020.0,0000.0,0003.26,0003.72,0003.14
2024-04-18 11:49:00,SystemResetWarning,0833.3,5.00,000.00,022.1,021.3,000.0,030.8,024.0,020.1,0000.0,0003.27,0003.75,0003.14
2024-04-18 11:50:00,SystemResetWarning,0833.4,5.01,000.00,022.1,021.3,000.0,030.8,024.0,020.1,0000.0,0003.27,0003.87,0003.13
2024-04-18 11:51:00,SystemResetWarning,0833.4,5.00,000.00,022.1,021.3,000.0,030.8,023.9,020.1,0000.0,0003.27,0003.85,0003.12
2024-04-18 11:52:00,SystemResetWarning,0833.4,5.00,000.00,022.0,021.3,000.0,030.8,023.9,020.1,0000.0,0003.24,0003.77,0003.12
2024-04-18 11:53:00,SystemResetWarning,0833.4,5.00,000.00,022.0,021.2,000.0,030.7,023.9,020.1,0000.0,0003.24,0003.74,0003.13
2024-04-18 11:54:00,SystemResetWarning,0833.4,5.01,000.00,022.0,021.2,000.0,030.7,023.9,020.1,0000.0,0003.24,0003.72,0003.14
2024-04-18 11:55:00,SystemResetWarning,0833.4,5.00,000.00,022.0,021.2,000.0,030.7,023.9,020.1,0000.0,0003.25,0003.72,0003.15
2024-04-18 11:56:00,SystemResetWarning,0833.4,5.00,000.00,022.0,021.2,000.0,030.7,023.9,020.1,0000.0,0003.25,0003.75,0003.15
2024-04-18 11:57:00,SystemResetWarning,0833.4,5.00,000.00,022.0,021.2,000.0,030.7,023.9,020.1,0000.0,0003.26,0003.74,0003.16
2024-04-18 11:58:00,SystemResetWarning,0833.4,5.01,000.00,022.0,021.1,000.0,030.7,023.8,020.2,0000.0,0003.27,0003.75,0003.16
2024-04-18 11:59:00,SystemResetWarning,0833.4,5.00,000.00,022.0,021.1,000.0,030.7,023.9,020.2,0000.0,0003.27,0003.74,0003.17
